Snowfall_Accumulation
0.0 0.0 0.0 0.0 0.0 0.0 0.0 0.0 0.0 0.0 0.0 0.0 0.0 0.0 0.0 0.0 0.0 0.0 0.0 0.0 0.0 0.0
0.0 0.0 0.0 0.0 0.0 0.0 0.0 0.0 0.0 0.0 0.0 0.0 0.0 0.0 0.0 0.0 0.0 0.0 0.0 0.0 0.0 0.0
0.0 0.0 0.0 0.0 0.0 0.0 0.0 0.0 0.0 0.0 0.0 0.0 0.0 0.0 0.0 0.0 0.0 0.0 0.0 0.0 0.0 0.0
0.0 0.0 0.0 0.0 0.0 0.0 0.0 0.0 0.0 0.0 0.0 0.0 0.0 0.0 0.0 0.0 0.0 0.0 0.0 0.0 0.0 0.0
0.0 0.0 0.0 0.0 0.0 0.0 0.0 0.0 0.0 0.0 0.0 0.0 0.0 0.0 0.0 0.0 0.0 0.0 0.0 0.0 0.0 0.0
0.0 0.0 0.0 0.0 0.0 0.0 0.0 0.0 0.0 0.0 0.1 0.0 0.0 0.0 0.0 0.0 0.0 0.0 0.0 0.0 0.0 0.0
0.0 0.0 0.0 0.0 0.0 0.0 0.0 0.2 0.0 0.0 0.1 0.1 0.0 0.0 0.0 0.0 0.0 0.0 0.0 0.0 0.0 0.0
0.0 0.0 0.0 0.0 0.0 0.0 0.0 0.1 0.0 0.2 0.0 0.1 0.2 0.2 0.2 0.4 0.2 0.1 0.1 0.0 0.1 0.0
0.0 0.0 0.0 0.0 0.0 0.0 0.0 0.0 0.1 0.3 0.4 0.5 0.2 0.2 0.6 0.7 2.4 2.0 1.9 1.3 0.1 0.1
0.0 0.0 0.0 0.0 0.0 0.0 0.1 0.0 0.1 0.3 0.5 0.6 0.2 0.3 0.5 0.6 1.4 2.3 1.5 0.5 0.2 0.1
0.0 0.0 0.0 0.0 0.0 0.0 0.1 0.3 0.5 0.4 0.4 0.7 0.2 0.3 0.6 0.7 1.3 1.2 0.1 0.2 0.1 0.4
0.0 0.0 0.0 0.0 0.0 0.0 0.5 0.3 0.2 0.4 0.7 0.8 0.2 0.3 0.7 0.9 1.3 0.6 0.2 0.1 0.0 0.0
0.0 0.0 0.1 0.0 0.5 0.3 0.3 0.5 0.5 0.1 0.4 0.5 0.7 0.3 0.6 1.2 2.4 1.6 0.5 0.0 0.1 0.0
0.0 0.0 0.0 0.2 0.2 0.4 0.3 0.2 0.2 0.2 0.2 0.3 0.6 0.4 0.4 0.7 2.0 2.3 1.7 0.7 0.4 0.2